STARLINK-3902, 52487

Orbit data source: Space-Track

STARLINK-3902, 52487 is a payload satellite owned by SpaceX/Seattle (US) in LEO that was launched on Fri, 06 May 2022 UTC via an FALCON 9 launch vehicle from the Air Force Eastern Test Range (AFETR). Payload-class satellites include a variety of spacecraft equipped with specific instruments for various scientific and technological missions. These include communications satellites like Starlink; space stations such as the ISS; scientific satellites like the Hubble; Earth observation satellites from companies like Planet Labs, Umbra, and HawkEye 360; GPS; miniature CubeSats for education and research; and military/defense satellites.

Loading next visibility...
Identifier
52487, 2022-049AN
Orbit
LEO
Country
Flag of USUS
Related business
Manufacturer
SpaceX/Seattle
Mission
Operational Commercial Communications
Bus & Motor
STARLINK, Unknown motor
Mass
297 kg wet, ~220 kg dry
Launch date (UTC)
2022-05-06 (4 years ago)
Launch vehicle
FALCON 9
Launch site
Air Force Eastern Test Range (AFETR)
Object type
Payload
Rocket body
Debris
Shape & HBR
Box + 1 Pan, 10.1 m
Radar Cross Section
13.562 m², Large (>1 m²)

Expand to show TLE details & history
Last TLE update: 2 days ago

TLE from 2 days ago
0 STARLINK-3902
1 52487U 22049AN  26171.39324419  .00000757  00000-0  65643-4 0  9992
2 52487  53.1597 308.0540 0001138  73.1356 286.9760 15.08835537229136
Epoch: 2026-06-20T09:26Z
TLE epoch observation values (Epoch: 2026-06-20T09:26:16.298Z)
Latitude
-0.00001°
Longitude
-102.12243°
Altitude
540.419 km
Speed
7.593 km/s
True Right ascension
20h 32m 12s
True Declination
0° 00' 00"
Sunlit
Object was in full shadow at epoch
Visualization orbit readout
Latitude
Unknown
Longitude
Unknown
Altitude
Unknown
Speed
Unknown
Apparent Right ascension
Unknown
Apparent Declination
Unknown
Sunlit
N/A
Visualization observer readout
Local Sidereal Time
21:49:25
Azimuth
Unknown
Elevation
Unknown
Doppler factor
Unknown
Orbital elements
Apogee altitude
540.798 km
Perigee altitude
539.224 km
Semi-major axis
6,918.148 km
Eccentricity
0.00011
Inclination
53.1597°
RAAN
308.054°
Arg. of periapsis
73.1356°
True anomaly
286.96353°
Mean anomaly
286.976°
Eccentric anomaly
286.96976°
Mean motion
3.77188 °/min
Orbital period
95.44 mins
BSTAR
0.000065643
Loading maneuver chart data...
Computing Atmospheric mass density...

Documentation

Showing up to 5 results
|